sat.trackr.live / text

‹ back to catalog

STARLINK-32544

NORAD 61917 · 2024-207F

PAYLOAD ACTIVE UNKNOWN

§ Identity

Operator
Country
US
Launch date
2024-11-11
Launch site
AFETR
Launch vehicle
Mass (kg)
RCS (m²)

Purposes: comms

External: N2YO · Heavens-Above · Gunter

§ Orbital elements

Epoch: 2026-05-24T14:29:04.895232Z

Period
94.27 min
Inclination
42.9998°
Eccentricity
0.0001665
Mean motion
15.27596193 rev/d
Perigee alt
481.9 km
Apogee alt
484.1 km
Semi-major
6,861.1 km
B*
7.3471e-4
RAAN
212.8886°
Arg perigee
273.9374°
Mean anomaly
86.1288°
Rev number
8,633

§ Raw data

STARLINK-325441 61917U 24207F   26144.60352888  .00020021  00000+0  73471-3 0  99952 61917  42.9998 212.8886 0001665 273.9374  86.1288 15.27596193 86336

JSON: /api/v1/satellites/61917 · /tle

For live sub-satellite position, see the globe view (requires WebGL).

§ Visibility from observer

Set your observer location to see the next 7 days of passes ≥ 10°. The values pass through the URL so the page stays shareable.

No JS? Fill the form by hand. The geolocation button needs JavaScript.